FW4610 Weather Reports


time (UTC)temp
F
wind
direction
speed
knots
gust
knots
rain 1hr
in
rain 24hr
in
rain mn
in
humidity
%
barometer
mb
20260510164534 56 158 2.6 11.3 0.00 0.11 0.11 62 1010.6
20260510163530 57 237 2.6 11.3 0.00 0.11 0.11 62 1011.0
20260510162527 57 136 1.7 11.3 0.00 0.11 0.11 62 1011.0
20260510161523 56 291 1.7 13.0 0.00 0.11 0.11 64 1010.6
20260510160522 56 207 6.1 8.7 0.00 0.11 0.11 61 1010.6
20260510155515 56 292 3.5 11.3 0.00 0.11 0.11 66 1010.6
20260510154510 56 190 1.7 11.3 0.00 0.11 0.11 68 1010.6
20260510153506 56 287 1.7 11.3 0.00 0.11 0.11 69 1010.6
20260510152502 56 275 1.7 8.7 0.00 0.11 0.11 68 1010.3
20260510151527 57 354 0.9 8.7 0.00 0.11 0.11 68 1010.3
20260510150455 56 106 0.9 7.0 0.00 0.11 0.11 67 1010.3
20260510145452 56 82 0.9 8.7 0.00 0.11 0.11 66 1009.9
20260510144448 56 166 3.5 11.3 0.00 0.11 0.11 66 1009.9
20260510143443 56 22 3.5 13.0 0.00 0.11 0.11 70 1009.9
20260510142439 57 253 2.6 11.3 0.00 0.11 0.11 68 1009.9
20260510141936 56 182 5.2 8.7 0.00 0.11 0.11 67 1009.9
20260510140433 56 202 4.3 11.3 0.00 0.11 0.11 67 1009.9
20260510135426 55 251 1.7 8.7 0.00 0.11 0.11 73 1009.6
20260510134423 56 322 2.6 13.0 0.00 0.11 0.11 69 1009.6
20260510133421 56 212 2.6 8.7 0.00 0.11 0.11 68 1009.6
20260510132416 56 196 0.9 7.0 0.00 0.11 0.11 72 1009.6
20260510131415 56 302 1.7 14.8 0.00 0.11 0.11 72 1009.3
20260510130408 56 6 1.7 7.0 0.00 0.11 0.11 71 1009.3
20260510125403 55 241 2.6 14.8 0.00 0.11 0.11 72 1008.9
20260510124400 55 215 3.5 11.3 0.00 0.11 0.11 73 1008.9
20260510123355 55 248 2.6 11.3 0.00 0.11 0.11 75 1008.9
20260510122853 54 233 0.9 11.3 0.00 0.11 0.11 77 1008.6
20260510121347 54 294 2.6 11.3 0.00 0.11 0.11 77 1008.6
20260510120345 54 209 4.3 14.8 0.00 0.11 0.11 78 1008.3
20260510115340 53 212 2.6 13.0 0.00 0.11 0.11 80 1008.3
20260510114335 52 190 3.5 8.7 0.00 0.11 0.11 83 1007.9
20260510113832 51 231 1.7 8.7 0.00 0.11 0.11 88 1007.9
20260510112327 50 177 1.7 7.0 0.00 0.11 0.11 89 1007.9
20260510111324 50 204 4.3 7.0 0.00 0.11 0.11 92 1007.6
20260510110322 49 185 1.7 7.0 0.00 0.11 0.11 94 1007.6
20260510105318 49 230 0.0 7.0 0.00 0.11 0.11 96 1007.2
20260510104311 49 146 2.6 7.0 0.00 0.11 0.11 98 1006.9
20260510103308 49 141 0.0 7.0 0.00 0.11 0.11 99 1006.9
20260510102306 49 268 2.6 7.0 0.00 0.11 0.11 99 1006.6
20260510101304 49 189 3.5 7.0 0.00 0.11 0.11 99 1006.6
20260510100259 49 207 0.9 11.3 0.00 0.11 0.11 99 1006.9
20260510095255 49 213 2.6 7.0 0.00 0.11 0.11 99 1006.6
20260510094248 49 203 1.7 8.7 0.00 0.11 0.11 99 1006.6
20260510093746 49 183 2.6 8.7 0.00 0.11 0.11 99 1006.1
20260510092241 49 188 0.9 7.0 0.00 0.11 0.11 99 1006.1
20260510091237 49 174 2.6 8.7 0.00 0.11 0.11 99 1005.8
20260510090233 49 248 1.7 7.0 0.00 0.11 0.11 99 1005.8
20260510085229 49 221 2.6 7.0 0.00 0.11 0.11 99 1005.8
20260510084828 50 185 1.7 11.3 0.00 0.11 0.11 99 1005.8
20260510084229 50 204 1.7 4.3 0.00 0.11 0.11 99 1005.8
20260510084225 50 211 0.0 8.7 0.00 0.11 0.11 99 1005.8
20260510081215 50 193 2.6 7.0 0.00 0.11 0.11 99 1005.4
20260510080210 50 234 4.3 11.3 0.00 0.11 0.11 99 1005.4
20260510075205 50 222 1.7 7.0 0.00 0.11 0.11 99 1005.1
20260510074203 50 219 0.0 7.0 0.00 0.11 0.11 99 1005.1
20260510073157 50 218 4.3 7.0 0.00 0.11 0.11 99 1005.1
20260510072656 50 200 3.5 11.3 0.00 0.11 0.11 99 1005.1
20260510071650 50 224 4.3 7.0 0.00 0.11 0.11 99 1005.1
20260510070147 49 252 2.6 4.3 0.00 0.11 0.11 99 1005.4
20260510065142 49 216 0.0 1.7 0.00 0.11 0.11 99 1005.1
20260510064144 49 199 0.0 4.3 0.01 0.11 0.11 99 1005.1
20260510064140 49 196 0.9 4.3 0.00 0.11 0.11 99 1005.1
20260510062133 49 214 2.6 4.3 0.01 0.11 0.11 99 1005.1
20260510061128 49 204 0.9 4.3 0.02 0.11 0.11 99 1005.1
20260510060123 49 216 1.7 1.7 0.04 0.11 0.11 99 1005.1
20260510055621 49 91 0.0 4.3 0.07 0.11 0.11 99 1004.8
20260510055226 49 209 0.9 1.7 0.09 0.11 0.11 99 1004.8
20260510053611 49 159 0.0 1.7 0.09 0.09 0.09 99 1004.8
20260510052608 49 148 0.9 1.7 0.09 0.09 0.09 99 1005.1
20260510051106 49 227 1.7 7.0 0.08 0.08 0.08 99 1005.1
20260510050108 50 192 0.0 4.3 0.06 0.06 0.07 99 1005.4
20260510045057 50 214 0.9 4.3 0.04 0.04 0.04 97 1005.4
20260510044050 51 211 3.5 7.0 0.01 0.01 0.01 95 1005.4
20260510043047 51 206 1.7 4.3 0.00 0.00 0.00 93 1005.1
20260510042046 51 172 3.5 7.0 0.00 0.00 0.00 91 1004.8
20260510041043 51 181 5.2 7.0 0.00 0.00 0.00 91 1005.1
20260510040041 51 128 2.6 4.3 0.00 0.00 0.00 91 1004.8
20260510035036 50 185 0.9 4.3 0.00 0.00 0.00 91 1004.8
20260510034032 50 124 1.7 7.0 0.00 0.00 0.00 91 1004.8
20260510033033 50 99 1.7 4.3 0.00 0.00 0.00 91 1004.8
20260510032026 50 73 0.9 4.3 0.00 0.00 0.00 92 1005.1
20260510031026 50 160 0.0 4.3 0.00 0.00 0.00 92 1005.1
20260510030012 50 77 1.7 4.3 0.00 0.00 0.00 92 1005.1
20260510025010 50 153 1.7 4.3 0.00 0.00 0.00 91 1005.4
20260510024004 50 207 1.7 4.3 0.00 0.00 0.00 91 1005.4
20260510023000 50 144 0.9 7.0 0.00 0.00 0.00 91 1005.4
20260510022459 50 62 1.7 4.3 0.00 0.00 0.00 91 1005.4
20260510020953 50 145 0.9 4.3 0.00 0.00 0.00 91 1005.8
20260510020451 51 114 0.0 4.3 0.00 0.00 0.00 90 1005.8
20260510020054 51 190 0.0 4.3 0.00 0.00 0.00 90 1006.1
20260510013941 51 220 0.9 4.3 0.00 0.00 0.00 89 1006.1
20260510012937 51 174 0.0 4.3 0.00 0.00 0.00 89 1006.1
20260510011935 52 80 1.7 4.3 0.00 0.00 0.00 88 1006.6
20260510010931 52 171 3.5 7.0 0.00 0.00 0.00 87 1006.1
20260510010428 52 96 0.9 7.0 0.00 0.00 0.00 86 1006.1
20260510005424 53 131 2.6 7.0 0.00 0.00 0.00 86 1006.1
20260510004421 53 90 1.7 11.3 0.00 0.00 0.00 85 1005.8
20260510002914 53 58 2.6 8.7 0.00 0.00 0.00 84 1006.1
20260510001911 54 14 1.7 8.7 0.00 0.00 0.00 83 1005.8
20260510000919 54 96 1.7 7.0 0.00 0.00 0.00 82 1005.8
20260509235904 55 185 1.7 11.3 0.00 0.00 0.00 81 1006.1
20260509234859 55 73 2.6 7.0 0.00 0.00 0.00 80 1005.8
20260509233854 56 86 6.1 8.7 0.00 0.00 0.00 78 1005.4
20260509232854 56 258 0.9 11.3 0.00 0.00 0.00 77 1005.8
20260509231850 57 136 2.6 11.3 0.00 0.00 0.00 76 1005.4
20260509230843 58 123 5.2 11.3 0.00 0.00 0.00 74 1005.8
20260509225841 59 72 4.3 8.7 0.00 0.00 0.00 73 1005.8
20260509224835 59 176 0.9 7.0 0.00 0.00 0.00 71 1005.8
20260509223831 60 273 1.7 11.3 0.00 0.00 0.00 69 1006.1
20260509222828 61 201 0.0 11.3 0.00 0.00 0.00 68 1006.6
20260509221824 62 114 2.6 8.7 0.00 0.00 0.00 65 1006.1
20260509221323 62 95 3.5 8.7 0.00 0.00 0.00 63 1006.1
20260509215820 63 110 3.5 8.7 0.00 0.00 0.00 60 1006.1
20260509214812 63 24 2.6 7.0 0.00 0.00 0.00 58 1006.1
20260509213809 64 130 1.7 8.7 0.00 0.00 0.00 57 1006.1
20260509212806 64 107 3.5 11.3 0.00 0.00 0.00 54 1006.1
20260509211800 65 64 7.0 13.0 0.00 0.00 0.00 51 1006.1
20260509210755 66 121 1.7 11.3 0.00 0.00 0.00 48 1006.1
20260509205753 66 164 1.7 11.3 0.00 0.00 0.00 47 1006.6
20260509204749 66 53 1.7 8.7 0.00 0.00 0.00 44 1006.1
20260509203745 66 98 1.7 11.3 0.00 0.00 0.00 43 1006.1
20260509202739 67 125 1.7 11.3 0.00 0.00 0.00 41 1006.1
20260509202241 67 86 5.2 8.7 0.00 0.00 0.00 41 1006.1
20260509200745 68 90 4.3 8.7 0.00 0.00 0.00 38 1006.6
20260509200229 68 245 1.7 8.7 0.00 0.00 0.00 37 1006.6
20260509194724 68 80 3.5 11.3 0.00 0.00 0.00 35 1006.6
20260509193723 68 124 1.7 8.7 0.00 0.00 0.00 33 1006.9
20260509192720 68 74 4.3 11.3 0.00 0.00 0.00 34 1006.9
20260509191713 68 61 5.2 8.7 0.00 0.00 0.00 35 1007.2
20260509190709 68 246 1.7 11.3 0.00 0.00 0.00 34 1007.2
20260509190207 68 151 3.5 8.7 0.00 0.00 0.00 34 1007.2
20260509185201 68 192 0.9 8.7 0.00 0.00 0.00 33 1007.6
20260509183657 67 157 3.5 8.7 0.00 0.00 0.00 35 1007.6
20260509182653 67 234 1.7 13.0 0.00 0.00 0.00 33 1007.2
20260509181649 67 235 3.5 8.7 0.00 0.00 0.00 33 1007.6
20260509180649 67 221 4.3 11.3 0.00 0.00 0.00 35 1007.6
20260509175641 67 105 2.6 11.3 0.00 0.00 0.00 34 1007.9
20260509174638 67 84 3.5 7.0 0.00 0.00 0.00 34 1007.9
20260509173635 67 68 2.6 7.0 0.00 0.00 0.00 35 1007.9
20260509172629 67 171 3.5 7.0 0.00 0.00 0.00 34 1008.3
20260509172127 66 231 1.7 7.0 0.00 0.00 0.00 36 1008.3
20260509171136 65 172 1.7 7.0 0.00 0.00 0.00 36 1008.6
20260509165621 64 173 2.6 11.3 0.00 0.00 0.00 36 1008.9
20260509164615 64 173 3.5 8.7 0.00 0.00 0.00 36 1008.9